Weather History for St. Joseph, MO

Change the Weather History Date:

Wednesday, June 11, 2014

  Actual Average Record
Temperature  
Mean Temperature 68 °F 73 °F  
Max Temperature 81 °F 83 °F 104 °F (1918)
Min Temperature 54 °F 62 °F 49 °F (1979)
Degree Days  
Heating Degree Days 0 0  
Month to date heating degree days 0 6  
Since 1 June heating degree days 0 6  
Since 1 July heating degree days 6269 5456  
Cooling Degree Days 3 8  
Month to date cooling degree days 73 78  
Year to date cooling degree days 234 191  
Since 1 June cooling degree days 73 78  
Growing Degree Days 18 (Base 50)    
Moisture  
Dew Point 57 °F    
Average Humidity 69    
Maximum Humidity 93    
Minimum Humidity 45    
Precipitation  
Precipitation 0.00 in 0.15 in 1.62 in (1968)
Month to date precipitation 4.74 1.77  
Year to date precipitation 12.51 14.72  
Sea Level Pressure  
Sea Level Pressure 29.82 in    
Wind  
Wind Speed 4 mph (East)    
Max Wind Speed 12 mph    
Max Gust Speed 14 mph    
Visibility 9 miles    
Events      
T = Trace of Precipitation, MM = Missing Value Source: NWS Daily Summary

Daily Weather History Graph

Daily Weather History Graph

Search for Another Location

Airport:

Trip Planner

Search our weather history database for the weather conditions in past years. The results will help you decide how hot, cold, wet, or windy it might be!

Date:

Astronomy

Jun. 11, 2014 Rise Set
Actual Time 5:51 AM CDT 8:47 PM CDT
Civil Twilight 5:18 AM CDT 9:20 PM CDT
Nautical Twilight 4:37 AM CDT 10:01 PM CDT
Astronomical Twilight 3:49 AM CDT 10:49 PM CDT
Moon 7:18 PM CDT (6/11) 4:41 AM CDT (6/11)
Length of Visible Light 16h 01m
Length of Day
14h 56m
Waxing Gibbous, 97% of the Moon is Illuminated
Jun 11
Waxing Gibbous
Jun 12
Full
Jun 19
Last Quarter
Jun 27
New
Jul 5
First Quarter

Hourly Weather History & Observations

Time (CDT) Temp. Heat Index Dew Point Humidity Pressure Visibility Wind Dir Wind Speed Gust Speed Precip Events Conditions
12:53 AM 57.9 °F - 55.0 °F 90% 29.83 in 10.0 mi NE 5.8 mph - N/A   Clear
1:53 AM 57.9 °F - 55.0 °F 90% 29.83 in 10.0 mi NNE 4.6 mph - N/A   Mostly Cloudy
2:53 AM 57.9 °F - 55.0 °F 90% 29.82 in 9.0 mi North 5.8 mph - N/A   Scattered Clouds
3:53 AM 55.0 °F - 53.1 °F 93% 29.82 in 8.0 mi North 5.8 mph - N/A   Clear
4:53 AM 55.0 °F - 53.1 °F 93% 29.84 in 7.0 mi NNE 5.8 mph - N/A   Clear
5:53 AM 55.0 °F - 53.1 °F 93% 29.83 in 5.0 mi North 3.5 mph - N/A   Clear
6:53 AM 57.0 °F - 55.9 °F 96% 29.84 in 6.0 mi Calm Calm - N/A   Clear
7:53 AM 62.1 °F - 55.9 °F 80% 29.85 in 10.0 mi Calm Calm - N/A   Clear
8:53 AM 64.9 °F - 57.9 °F 78% 29.85 in 10.0 mi Calm Calm - N/A   Clear
9:53 AM 69.1 °F - 57.0 °F 65% 29.85 in 10.0 mi Calm Calm - N/A   Clear
10:53 AM 72.0 °F - 57.9 °F 61% 29.85 in 10.0 mi Variable 3.5 mph - N/A   Clear
11:07 AM 72.0 °F - 57.0 °F 59% 29.85 in - Variable 3.5 mph - N/A   Unknown
11:53 AM 75.0 °F - 55.9 °F 51% 29.83 in 9.0 mi Variable 4.6 mph - N/A   Clear
12:53 PM 75.9 °F - 55.9 °F 50% 29.83 in 10.0 mi Variable 4.6 mph - N/A   Clear
1:53 PM 78.1 °F - 57.0 °F 48% 29.81 in 10.0 mi South 3.5 mph - N/A   Clear
2:53 PM 80.1 °F 80.4 °F 57.0 °F 45% 29.80 in 10.0 mi Variable 4.6 mph - N/A   Clear
4:53 PM 80.1 °F 80.6 °F 57.9 °F 47% 29.77 in 10.0 mi SSE 4.6 mph - N/A   Clear
5:53 PM 80.1 °F 80.6 °F 57.9 °F 47% 29.76 in 10.0 mi SE 9.2 mph - N/A   Clear
6:53 PM 79.0 °F - 59.0 °F 50% 29.76 in 10.0 mi SSE 6.9 mph - N/A   Clear
7:53 PM 75.9 °F - 60.1 °F 58% 29.77 in 10.0 mi SSE 6.9 mph - N/A   Clear
8:53 PM 73.0 °F - 59.0 °F 61% 29.77 in 10.0 mi SE 4.6 mph - N/A   Clear
9:53 PM 68.0 °F - 62.1 °F 81% 29.79 in 10.0 mi Calm Calm - N/A   Clear
10:53 PM 66.9 °F - 62.1 °F 84% 29.81 in 10.0 mi NW 3.5 mph - N/A   Partly Cloudy
11:53 PM 68.0 °F - 64.0 °F 87% 29.80 in 10.0 mi South 4.6 mph - N/A   Clear